[[{"header":{"parameterUnit":"m.s-1","parameterCategory":1,"la1":30.2991,"la2":30.254,"lo1":-89.0895,"lo2":-89.0444,"dy":0.0017,"dx":0.0017,"nx":28,"ny":28,"refTime":"2023-08-15T21:00:00:Z","depth":0,"parameterNumber":2,"parameterNumberName":"U-component_of_WINDS"},"data":[0,0,0,0,0,0,0,0,0,0,0,0,0,0,0,0,0,0,0,0,0,0,0,0,0,0,0,0,0,0,0,0,0,0,0,0,0,0,0,0,0,0,0,0,0,0,0,0,0,0,0,0,0,0,0,0,0,0,-1.0873,-1.0873,0,-1.0848,-1.0848,-1.0848,-1.074,-1.0738,-1.0735,-1.0733,-1.071,-1.0712,-1.0714,0,0,0,0,0,0,0,0,0,0,0,0,0,-1.0831,-1.0832,-1.0873,-1.0873,-1.0872,-1.0848,-1.0848,-1.0847,-1.0741,-1.0738,-1.0735,-1.0732,-1.071,-1.0712,-1.0714,0,0,0,0,0,0,0,0,0,0,0,0,0,-1.0832,-1.0832,-1.0873,-1.0816,-1.0811,-1.0848,-1.0848,-1.0847,-1.0741,-1.0738,-1.0734,-1.073,-1.0709,-1.0711,-1.0714,-1.0805,0,0,-1.0722,-1.0723,0,0,0,0,0,0,0,0,-1.0832,-1.0834,-1.0825,-1.082,-1.0814,-1.0793,-1.0824,-1.0833,-1.0742,-1.0768,-1.0733,-1.0728,-1.0741,-1.0741,-1.0744,-1.0804,-1.0803,-1.0722,-1.0724,-1.0725,-1.0726,0,0,0,0,0,0,0,-1.0832,-1.0834,-1.0863,-1.0825,-1.0818,-1.0793,-1.0789,-1.0826,-1.0776,-1.0765,-1.0757,-1.0756,-1.0737,-1.0742,-1.0743,-1.0803,-1.0722,-1.0724,-1.0726,-1.0727,-1.0937,-1.0941,0,0,0,0,0,0,-1.084,-1.0835,-1.0864,-1.0862,-1.0814,-1.0797,-1.0792,-1.0804,-1.0775,-1.0767,-1.0759,-1.0751,-1.074,-1.074,-1.0742,-1.0847,-1.0725,-1.0727,-1.0729,-1.0933,-1.0938,-1.0942,0,0,0,0,0,0,-1.0839,-1.0843,-1.0865,-1.0846,-1.0847,-1.0801,-1.0815,-1.0805,-1.081,-1.077,-1.0761,-1.0773,-1.0737,-1.0738,-1.079,-1.0845,-1.0728,-1.0731,-1.0928,-1.0934,-1.094,-1.1059,0,0,0,0,0,0,-1.0838,-1.0844,-1.0877,-1.0848,-1.0849,-1.0913,-1.0819,-1.0808,-1.0814,-1.0804,-1.0781,-1.0774,-1.0734,-1.0787,-1.0793,-1.0847,-1.0733,-1.0923,-1.0931,-1.0938,-1.105,-1.1068,-1.1084,0,0,0,0,0,-1.0837,-1.0912,-1.0879,-1.0884,-1.0889,-1.0917,-1.0917,-1.0869,-1.0819,-1.0853,-1.0828,-1.0774,-1.0838,-1.0793,-1.0799,-1.0854,-1.0919,-1.0929,-1.0937,-1.1042,-1.1065,-1.1084,0,0,0,0,0,0,-1.095,-1.0907,-1.0871,-1.0938,-1.0932,-1.0898,-1.094,-1.0894,-1.0902,-1.0892,-1.0833,-1.0829,-1.089,-1.0877,-1.0828,-1.0941,-1.087,-1.088,-1.0948,-1.0968,-1.0985,-1.0987,-1.0735,0,0,0,0,0,-1.0982,-1.1007,-1.0969,-1.1032,-1.1031,-1.0986,-1.0996,-1.096,-1.0951,-1.0948,-1.0926,-1.0921,-1.0939,-1.0953,-1.0968,-1.1047,-1.1042,-1.1088,-1.1105,-1.112,-1.113,-1.1172,-1.1192,-1.0972,-1.0972,-1.0972,0,0,-1.105,-1.103,-1.1049,-1.1054,-1.1045,-1.1073,-1.0985,-1.1018,-1.1038,-1.0953,-1.1001,-1.0985,-1.0975,-1.1042,-1.107,-1.1033,-1.1189,-1.1131,-1.1143,-1.1145,-1.1183,-1.1204,-1.1223,-1.0978,-1.0977,-1.0976,0,0,-1.1188,-1.1175,-1.1227,-1.1219,-1.1206,-1.1176,-1.1188,-1.1162,-1.1148,-1.1195,-1.1132,-1.1156,-1.1189,-1.1185,-1.1187,-1.1324,-1.1276,-1.133,-1.142,-1.1462,-1.1479,-1.1494,-1.1544,-1.1563,-1.1341,-1.1341,-1.1341,0,-1.1275,-1.1313,-1.1259,-1.1297,-1.1301,-1.1225,-1.1277,-1.1273,-1.1266,-1.1271,-1.123,-1.127,-1.1258,-1.1323,-1.1356,-1.136,-1.1374,-1.1333,-1.1481,-1.1495,-1.1509,-1.1556,-1.1574,-1.1348,-1.1347,-1.1346,-1.1346,0,-1.142,-1.1448,-1.1492,-1.1486,-1.1495,-1.154,-1.1494,-1.151,-1.1473,-1.1448,-1.1497,-1.148,-1.149,-1.1503,-1.1467,-1.1563,-1.154,-1.1491,-1.1418,-1.1537,-1.1581,-1.1598,-1.1357,-1.1355,-1.1353,-1.1351,0,0,-1.1629,-1.1593,-1.161,-1.1607,-1.1587,-1.1608,-1.165,-1.1659,-1.1675,-1.1673,-1.1707,-1.1737,-1.1691,-1.1694,-1.1657,-1.1693,-1.1804,-1.1639,-1.1638,-1.1671,-1.191,-1.1949,-1.197,-1.1772,-1.1775,-1.1778,-1.1912,0,-1.1761,-1.1829,-1.1782,-1.1859,-1.1885,-1.1813,-1.185,-1.1842,-1.182,-1.1839,-1.1814,-1.1837,-1.1774,-1.1775,-1.1808,-1.1784,-1.1852,-1.1774,-1.1805,-1.1806,-1.181,-1.1992,-1.2033,-1.216,-1.1928,-1.1931,-1.1933,0,-1.1924,-1.1929,-1.2009,-1.1984,-1.1993,-1.2027,-1.2032,-1.2051,-1.2041,-1.2022,-1.2026,-1.198,-1.202,-1.1948,-1.2004,-1.1952,-1.1961,-1.1952,-1.1955,-1.1957,-1.1878,-1.2,-1.2199,-1.2219,-1.1959,-1.1957,-1.1955,0,-1.207,-1.2096,-1.2147,-1.2146,-1.2119,-1.2144,-1.2134,-1.212,-1.213,-1.2135,-1.214,-1.215,-1.2156,-1.2165,-1.2124,-1.2075,-1.2186,-1.2109,-1.2172,-1.2173,-1.2199,-1.2198,-1.2404,-1.2205,-1.2204,-1.2204,-1.2203,0,-1.2223,-1.2274,-1.2211,-1.2243,-1.2299,-1.2245,-1.2302,-1.2285,-1.2274,-1.2301,-1.224,-1.2267,-1.221,-1.2232,-1.22,-1.2252,-1.2255,-1.2241,-1.2232,-1.2248,-1.2249,-1.2254,-1.2244,-1.2209,-1.2208,-1.2207,-1.2206,0,-1.2395,-1.2354,-1.2405,-1.2375,-1.2369,-1.2412,-1.2386,-1.2415,-1.2388,-1.2424,-1.2429,-1.2388,-1.2411,-1.237,-1.2388,-1.2366,-1.2439,-1.2416,-1.2442,-1.2436,-1.2501,-1.2496,-1.2717,-1.2744,-1.2527,-1.2529,-1.2531,0,-1.2495,-1.2533,-1.2507,-1.2521,-1.2514,-1.2537,-1.2546,-1.2494,-1.2506,-1.2498,-1.2528,-1.2546,-1.2557,-1.2597,-1.257,-1.2583,-1.2561,-1.2637,-1.2562,-1.2577,-1.2563,-1.2562,-1.2566,-1.2653,-1.2656,-1.2658,-1.2659,0,-1.2679,-1.2657,-1.2671,-1.268,-1.2692,-1.2696,-1.2696,-1.2711,-1.2656,-1.2673,-1.2695,-1.2704,-1.2722,-1.2741,-1.2748,-1.2738,-1.2691,-1.2683,-1.2699,-1.2715,-1.2729,-1.2723,-1.2485,-1.2679,-1.2677,-1.2675,-1.2674,-1.2673,-1.2818,-1.2849,-1.2836,-1.2854,-1.2849,-1.285,-1.2876,-1.2852,-1.2869,-1.288,-1.2848,-1.2878,-1.2868,-1.2873,-1.2869,-1.2892,-1.2858,-1.288,-1.2886,-1.2893,-1.2904,-1.2725,-1.2893,-1.2892,-1.2892,-1.2891,-1.2891,0,-1.2999,-1.2987,-1.3005,-1.3006,-1.3021,-1.2974,-1.2971,-1.2988,-1.3014,-1.3009,-1.3021,-1.3048,-1.3066,-1.3039,-1.3053,-1.3077,-1.3056,-1.3083,-1.3081,-1.308,-1.2933,-1.2918,-1.31,-1.31,-1.31,-1.31,-1.31,-1.31,-1.3095,-1.3145,-1.3122,-1.3169,-1.3157,-1.3185,-1.3188,-1.3189,-1.3184,-1.3216,-1.3231,-1.3213,-1.32,-1.3212,-1.3227,-1.3219,-1.3228,-1.3263,-1.3247,-1.3111,-1.309,-1.3071,-1.3057,-1.3265,-1.3265,-1.3393,-1.3394,-1.3395]},{"header":{"parameterUnit":"m.s-1","parameterCategory":1,"la1":30.2991,"la2":30.254,"lo1":-89.0895,"lo2":-89.0444,"dy":0.0017,"dx":0.0017,"nx":28,"ny":28,"refTime":"2023-08-15T21:00:00:Z","depth":0,"parameterNumber":3,"parameterNumberName":"V-component_of_WINDS"},"data":[0,0,0,0,0,0,0,0,0,0,0,0,0,0,0,0,0,0,0,0,0,0,0,0,0,0,0,0,0,0,0,0,0,0,0,0,0,0,0,0,0,0,0,0,0,0,0,0,0,0,0,0,0,0,0,0,0,0,0.6115,0.6114,0,0.6066,0.6065,0.6065,0.6058,0.6059,0.6059,0.606,0.6007,0.6005,0.6003,0,0,0,0,0,0,0,0,0,0,0,0,0,0.62,0.6199,0.6115,0.6114,0.6114,0.6066,0.6065,0.6065,0.6058,0.6059,0.6059,0.606,0.6007,0.6005,0.6003,0,0,0,0,0,0,0,0,0,0,0,0,0,0.6158,0.6198,0.6115,0.6105,0.6103,0.6066,0.6065,0.6065,0.6058,0.6059,0.6059,0.606,0.6008,0.6005,0.6002,0.5971,0,0,0.5994,0.5993,0,0,0,0,0,0,0,0,0.6161,0.6155,0.6107,0.6105,0.6104,0.6069,0.6076,0.6033,0.6058,0.6075,0.606,0.606,0.6027,0.6022,0.6012,0.5969,0.5967,0.5994,0.5992,0.5991,0.599,0,0,0,0,0,0,0,0.6164,0.6157,0.6096,0.6106,0.6104,0.6102,0.6097,0.6068,0.6047,0.6074,0.6073,0.6068,0.6026,0.6014,0.601,0.5966,0.5994,0.5991,0.599,0.5989,0.5894,0.5894,0,0,0,0,0,0,0.6169,0.616,0.6097,0.6094,0.6135,0.61,0.6094,0.6079,0.6048,0.6044,0.6067,0.6067,0.6019,0.6013,0.6008,0.5969,0.5991,0.5988,0.5987,0.5895,0.5894,0.5893,0,0,0,0,0,0,0.6171,0.6163,0.6099,0.6127,0.6118,0.6097,0.6081,0.6078,0.6066,0.6043,0.6039,0.6059,0.6019,0.6012,0.5981,0.5967,0.5987,0.5985,0.5896,0.5895,0.5894,0.589,0,0,0,0,0,0,0.6173,0.6164,0.6152,0.6127,0.6117,0.6073,0.608,0.6077,0.6062,0.6062,0.6034,0.603,0.6019,0.5985,0.5978,0.5963,0.5982,0.5897,0.5896,0.5894,0.5892,0.5889,0.5887,0,0,0,0,0,0.6176,0.6153,0.6152,0.6144,0.6102,0.6072,0.6067,0.6055,0.6061,0.6049,0.6034,0.6031,0.597,0.5982,0.5974,0.5958,0.5898,0.5896,0.5894,0.5893,0.589,0.5887,0,0,0,0,0,0,0.6177,0.6149,0.6148,0.6116,0.6097,0.6071,0.6055,0.6052,0.603,0.6031,0.6017,0.601,0.5979,0.5966,0.5979,0.5926,0.5934,0.5931,0.5936,0.5933,0.5931,0.5934,0.598,0,0,0,0,0,0.6174,0.6152,0.6129,0.6103,0.6094,0.6076,0.6063,0.6056,0.6034,0.6026,0.6008,0.5987,0.5963,0.5948,0.5924,0.589,0.5883,0.5876,0.5874,0.5872,0.5868,0.5848,0.5844,0.5887,0.5887,0.5887,0,0,0.6166,0.6148,0.6136,0.6103,0.6087,0.6064,0.6069,0.6045,0.6028,0.6022,0.5991,0.5977,0.5953,0.592,0.5904,0.5908,0.5855,0.5869,0.5868,0.5865,0.5846,0.5842,0.5838,0.5886,0.5886,0.5886,0,0,0.614,0.6125,0.6101,0.6086,0.6062,0.6051,0.6045,0.602,0.6011,0.598,0.5975,0.5954,0.5913,0.5896,0.5882,0.585,0.5846,0.5843,0.583,0.5811,0.5807,0.5804,0.5791,0.5787,0.584,0.584,0.584,0,0.6133,0.6099,0.6089,0.6065,0.605,0.6046,0.6021,0.6006,0.5975,0.5965,0.597,0.5918,0.5901,0.5863,0.5856,0.5845,0.5837,0.5845,0.5809,0.5806,0.5802,0.579,0.5785,0.5839,0.5839,0.5839,0.5839,0,0.6091,0.6068,0.6052,0.6023,0.6007,0.5982,0.5968,0.5952,0.5947,0.5935,0.5903,0.5883,0.5855,0.5846,0.584,0.5807,0.581,0.5812,0.5819,0.5798,0.5786,0.5781,0.5839,0.5839,0.5839,0.5839,0,0,0.6063,0.603,0.6024,0.6011,0.5984,0.5966,0.5941,0.5915,0.5901,0.5881,0.5858,0.5824,0.5826,0.581,0.5802,0.5786,0.576,0.579,0.5789,0.5783,0.5721,0.5718,0.5713,0.5758,0.5758,0.5757,0.5722,0,0.6033,0.5989,0.598,0.5941,0.5919,0.5915,0.5893,0.5874,0.5862,0.5841,0.5828,0.5803,0.5809,0.5799,0.5782,0.5767,0.5747,0.5769,0.5736,0.5735,0.574,0.5706,0.5703,0.5672,0.5718,0.5717,0.5716,0,0.5991,0.5971,0.593,0.5907,0.5897,0.5878,0.5852,0.5833,0.5811,0.5804,0.5786,0.578,0.5753,0.5764,0.5726,0.5741,0.5727,0.5718,0.5716,0.5711,0.5723,0.5699,0.5661,0.5656,0.5709,0.571,0.571,0,0.5973,0.5935,0.5905,0.5894,0.5867,0.5853,0.5841,0.582,0.5804,0.5782,0.5772,0.5747,0.5733,0.5713,0.57,0.571,0.5663,0.5673,0.5655,0.5655,0.5643,0.5644,0.5601,0.5638,0.5638,0.5638,0.5638,0,0.5939,0.5914,0.5897,0.5878,0.585,0.5839,0.5812,0.5799,0.5781,0.5759,0.5754,0.5734,0.5719,0.5697,0.5687,0.5656,0.565,0.5643,0.564,0.5642,0.5642,0.5631,0.5632,0.5637,0.5637,0.5637,0.5637,0,0.5912,0.59,0.5867,0.5844,0.5838,0.5818,0.5797,0.5779,0.5768,0.5741,0.5734,0.5716,0.5689,0.5675,0.5642,0.5635,0.56,0.5599,0.5607,0.5606,0.5588,0.5589,0.5534,0.5526,0.557,0.557,0.5569,0,0.589,0.5871,0.5846,0.5832,0.5819,0.5796,0.5781,0.577,0.5754,0.5728,0.5712,0.5686,0.5663,0.5621,0.5604,0.5579,0.5576,0.5559,0.5572,0.5574,0.5573,0.5574,0.5571,0.5556,0.5555,0.5555,0.5555,0,0.5852,0.5847,0.5825,0.5801,0.5783,0.5764,0.5744,0.5733,0.5718,0.57,0.5674,0.5657,0.5623,0.5596,0.5569,0.5555,0.5552,0.5551,0.5545,0.5546,0.5551,0.5546,0.5599,0.5552,0.5552,0.5552,0.5553,0.5553,0.5826,0.5808,0.5787,0.5763,0.5748,0.573,0.5711,0.5698,0.5676,0.5648,0.5643,0.5614,0.5593,0.5557,0.5542,0.5519,0.5522,0.5514,0.5512,0.5509,0.5507,0.5557,0.5514,0.5514,0.5514,0.5514,0.5514,0,0.5785,0.5772,0.575,0.5724,0.5704,0.5705,0.5684,0.5667,0.5642,0.5623,0.5602,0.557,0.5544,0.5526,0.55,0.5484,0.5482,0.5477,0.5477,0.5474,0.5507,0.5514,0.548,0.548,0.548,0.548,0.548,0.548,0.5762,0.5732,0.5725,0.5687,0.5673,0.5646,0.5633,0.5616,0.5601,0.5566,0.5545,0.5534,0.5515,0.5487,0.5463,0.5458,0.5448,0.5443,0.5438,0.5468,0.5472,0.5475,0.5481,0.5441,0.5441,0.5406,0.5406,0.5406]}]]